"Period start","avg(HW err(1)/warn(2) (#))","avg(Visibility (m))","avg(Weather code (#))","avg(Precip intensity (mm/h))","min(HW err(1)/warn(2) (#))","max(HW err(1)/warn(2) (#))","std(HW err(1)/warn(2) (#))","med(HW err(1)/warn(2) (#))","min(Visibility (m))","max(Visibility (m))","std(Visibility (m))","med(Visibility (m))","min(Weather code (#))","max(Weather code (#))","std(Weather code (#))","med(Weather code (#))","min(Precip intensity (mm/h))","max(Precip intensity (mm/h))","std(Precip intensity (mm/h))","med(Precip intensity (mm/h))"
2013-10-05 00:00:00,2,49784,0,0.00,2,2,0,2,48610,50000,454,50000,0,0,0,0,0.00,0.00,0.00,0.00
2013-10-05 00:10:00,2,46421,0,0.00,2,2,0,2,38079,50000,4323,48352,0,0,0,0,0.00,0.00,0.00,0.00
2013-10-05 00:20:00,2,49294,0,0.00,2,2,0,2,45954,50000,1387,50000,0,0,0,0,0.00,0.00,0.00,0.00
2013-10-05 00:30:00,2,48452,0,0.00,2,2,0,2,43203,50000,2313,49799,0,0,0,0,0.00,0.00,0.00,0.00
2013-10-05 00:40:00,2,43701,0,0.00,2,2,0,2,34301,50000,5260,45112,0,0,0,0,0.00,0.00,0.00,0.00
2013-10-05 00:50:00,2,43500,0,0.00,2,2,0,2,34292,50000,5858,43046,0,0,0,0,0.00,0.00,0.00,0.00
2013-10-05 01:00:00,2,44471,0,0.00,2,2,0,2,37061,50000,5124,44190,0,0,0,0,0.00,0.00,0.00,0.00
2013-10-05 01:10:00,2,47731,0,0.00,2,2,0,2,39009,50000,3718,50000,0,0,0,0,0.00,0.00,0.00,0.00
2013-10-05 01:20:00,2,47738,0,0.00,2,2,0,2,39566,50000,3433,50000,0,0,0,0,0.00,0.00,0.00,0.00
2013-10-05 01:30:00,2,48425,0,0.00,2,2,0,2,42031,50000,2383,49618,0,0,0,0,0.00,0.00,0.00,0.00
2013-10-05 01:40:00,2,48187,0,0.00,2,2,0,2,42162,50000,2869,50000,0,0,0,0,0.00,0.00,0.00,0.00
2013-10-05 01:50:00,2,43321,0,0.00,2,2,0,2,32943,50000,4887,43503,0,0,0,0,0.00,0.00,0.00,0.00
2013-10-05 02:00:00,2,47461,0,0.00,2,2,0,2,40130,50000,3373,48958,0,0,0,0,0.00,0.00,0.00,0.00
2013-10-05 02:10:00,2,46777,0,0.00,2,2,0,2,40669,50000,3203,47697,0,0,0,0,0.00,0.00,0.00,0.00
2013-10-05 02:20:00,2,45383,0,0.00,2,2,0,2,38341,50000,3240,46208,0,0,0,0,0.00,0.00,0.00,0.00
2013-10-05 02:30:00,2,46400,0,0.00,2,2,0,2,40913,50000,4066,49088,0,0,0,0,0.00,0.00,0.00,0.00
2013-10-05 02:40:00,2,46253,0,0.00,2,2,0,2,27463,50000,6911,49572,0,0,0,0,0.00,0.00,0.00,0.00
2013-10-05 02:50:00,2,42837,0,0.00,2,2,0,2,31790,50000,6601,42438,0,0,0,0,0.00,0.00,0.00,0.00
2013-10-05 03:00:00,2,41676,0,0.00,2,2,0,2,26846,50000,6921,41666,0,0,0,0,0.00,0.00,0.00,0.00
2013-10-05 03:10:00,2,43585,0,0.00,2,2,0,2,30320,50000,5390,43992,0,0,0,0,0.00,0.00,0.00,0.00
2013-10-05 03:20:00,2,44440,0,0.00,2,2,0,2,28694,50000,7511,49657,0,0,0,0,0.00,0.00,0.00,0.00
2013-10-05 03:30:00,2,39978,0,0.00,2,2,0,2,27205,50000,6299,40316,0,0,0,0,0.00,0.00,0.00,0.00
2013-10-05 03:40:00,2,42525,0,0.00,2,2,0,2,33887,50000,5313,43210,0,0,0,0,0.00,0.00,0.00,0.00
2013-10-05 03:50:00,2,48601,0,0.00,2,2,0,2,36041,50000,4187,50000,0,0,0,0,0.00,0.00,0.00,0.00
2013-10-05 04:00:00,2,46825,0,0.00,2,2,0,2,42195,50000,2834,47556,0,0,0,0,0.00,0.00,0.00,0.00
2013-10-05 04:10:00,2,44513,0,0.00,2,2,0,2,32909,50000,5671,46500,0,0,0,0,0.00,0.00,0.00,0.00
2013-10-05 04:20:00,2,45549,0,0.00,2,2,0,2,35578,50000,4725,46714,0,0,0,0,0.00,0.00,0.00,0.00
2013-10-05 04:30:00,2,44167,0,0.00,2,2,0,2,33428,50000,6536,46924,0,0,0,0,0.00,0.00,0.00,0.00
2013-10-05 04:40:00,2,45391,0,0.00,2,2,0,2,32356,50000,5546,46890,0,0,0,0,0.00,0.00,0.00,0.00
2013-10-05 04:50:00,2,47552,0,0.00,2,2,0,2,40924,50000,3392,50000,0,0,0,0,0.00,0.00,0.00,0.00
2013-10-05 05:00:00,2,42250,0,0.00,2,2,0,2,28952,50000,6287,43256,0,0,0,0,0.00,0.00,0.00,0.00
2013-10-05 05:10:00,2,45396,0,0.00,2,2,0,2,33854,50000,6027,47950,0,0,0,0,0.00,0.00,0.00,0.00
2013-10-05 05:20:00,2,42743,0,0.00,2,2,0,2,26413,50000,7914,46164,0,0,0,0,0.00,0.00,0.00,0.00
2013-10-05 05:30:00,2,47641,0,0.00,2,2,0,2,34742,50000,4450,49512,0,0,0,0,0.00,0.00,0.00,0.00
2013-10-05 05:40:00,2,42794,0,0.00,2,2,0,2,31926,50000,5161,42835,0,0,0,0,0.00,0.00,0.00,0.00
2013-10-05 05:50:00,2,48081,0,0.00,2,2,0,2,43576,50000,2270,49412,0,0,0,0,0.00,0.00,0.00,0.00
2013-10-05 06:00:00,2,45999,0,0.00,2,2,0,2,34515,50000,5132,48912,0,0,0,0,0.00,0.00,0.00,0.00
2013-10-05 06:10:00,2,47832,0,0.00,2,2,0,2,39231,50000,3669,49896,0,0,0,0,0.00,0.00,0.00,0.00
2013-10-05 06:20:00,2,45240,0,0.00,2,2,0,2,32819,50000,5838,49049,0,0,0,0,0.00,0.00,0.00,0.00
2013-10-05 06:30:00,2,47943,0,0.00,2,2,0,2,38292,50000,4162,50000,0,0,0,0,0.00,0.00,0.00,0.00
2013-10-05 06:40:00,2,47707,0,0.00,2,2,0,2,38477,50000,3608,49802,0,0,0,0,0.00,0.00,0.00,0.00
2013-10-05 06:50:00,2,46454,0,0.00,2,2,0,2,40680,50000,3903,48502,0,0,0,0,0.00,0.00,0.00,0.00
2013-10-05 07:00:00,2,49510,0,0.00,2,2,0,2,47271,50000,861,50000,0,0,0,0,0.00,0.00,0.00,0.00
2013-10-05 07:10:00,2,49683,0,0.00,2,2,0,2,47978,50000,664,50000,0,0,0,0,0.00,0.00,0.00,0.00
2013-10-05 07:20:00,2,50000,0,0.00,2,2,0,2,50000,50000,0,50000,0,0,0,0,0.00,0.00,0.00,0.00
2013-10-05 07:30:00,2,50000,0,0.00,2,2,0,2,50000,50000,0,50000,0,0,0,0,0.00,0.00,0.00,0.00
2013-10-05 07:40:00,2,50000,0,0.00,2,2,0,2,50000,50000,0,50000,0,0,0,0,0.00,0.00,0.00,0.00
2013-10-05 07:50:00,2,50000,0,0.00,2,2,0,2,50000,50000,0,50000,0,0,0,0,0.00,0.00,0.00,0.00
2013-10-05 08:00:00,2,50000,0,0.00,2,2,0,2,50000,50000,0,50000,0,0,0,0,0.00,0.00,0.00,0.00
2013-10-05 08:10:00,2,50000,0,0.00,2,2,0,2,50000,50000,0,50000,0,0,0,0,0.00,0.00,0.00,0.00
2013-10-05 08:20:00,2,50000,0,0.00,2,2,0,2,50000,50000,0,50000,0,0,0,0,0.00,0.00,0.00,0.00
2013-10-05 08:30:00,2,50000,0,0.00,2,2,0,2,50000,50000,0,50000,0,0,0,0,0.00,0.00,0.00,0.00
2013-10-05 08:40:00,2,50000,0,0.00,2,2,0,2,50000,50000,0,50000,0,0,0,0,0.00,0.00,0.00,0.00
2013-10-05 08:50:00,2,50000,0,0.00,2,2,0,2,50000,50000,0,50000,0,0,0,0,0.00,0.00,0.00,0.00
2013-10-05 09:00:00,2,50000,0,0.00,2,2,0,2,50000,50000,0,50000,0,0,0,0,0.00,0.00,0.00,0.00
2013-10-05 09:10:00,2,50000,0,0.00,2,2,0,2,50000,50000,0,50000,0,0,0,0,0.00,0.00,0.00,0.00
2013-10-05 09:20:00,2,50000,0,0.00,2,2,0,2,50000,50000,0,50000,0,0,0,0,0.00,0.00,0.00,0.00
2013-10-05 09:30:00,2,50000,0,0.00,2,2,0,2,50000,50000,0,50000,0,0,0,0,0.00,0.00,0.00,0.00
2013-10-05 09:40:00,2,50000,0,0.00,2,2,0,2,50000,50000,0,50000,0,0,0,0,0.00,0.00,0.00,0.00
2013-10-05 09:50:00,2,50000,0,0.00,2,2,0,2,50000,50000,0,50000,0,0,0,0,0.00,0.00,0.00,0.00
2013-10-05 10:00:00,2,50000,0,0.00,2,2,0,2,50000,50000,0,50000,0,0,0,0,0.00,0.00,0.00,0.00
2013-10-05 10:10:00,2,50000,0,0.00,2,2,0,2,50000,50000,0,50000,0,0,0,0,0.00,0.00,0.00,0.00
2013-10-05 10:20:00,2,50000,0,0.00,2,2,0,2,50000,50000,0,50000,0,0,0,0,0.00,0.00,0.00,0.00
2013-10-05 10:30:00,2,50000,0,0.00,2,2,0,2,50000,50000,0,50000,0,0,0,0,0.00,0.00,0.00,0.00
2013-10-05 10:40:00,2,50000,0,0.00,2,2,0,2,50000,50000,0,50000,0,0,0,0,0.00,0.00,0.00,0.00
2013-10-05 10:50:00,2,50000,0,0.00,2,2,0,2,50000,50000,0,50000,0,0,0,0,0.00,0.00,0.00,0.00
2013-10-05 11:00:00,2,50000,0,0.00,2,2,0,2,50000,50000,0,50000,0,0,0,0,0.00,0.00,0.00,0.00
2013-10-05 11:10:00,2,50000,0,0.00,2,2,0,2,50000,50000,0,50000,0,0,0,0,0.00,0.00,0.00,0.00
2013-10-05 11:20:00,2,50000,0,0.00,2,2,0,2,50000,50000,0,50000,0,0,0,0,0.00,0.00,0.00,0.00
2013-10-05 11:30:00,2,50000,0,0.00,2,2,0,2,50000,50000,0,50000,0,0,0,0,0.00,0.00,0.00,0.00
2013-10-05 11:40:00,2,50000,0,0.00,2,2,0,2,50000,50000,0,50000,0,0,0,0,0.00,0.00,0.00,0.00
2013-10-05 11:50:00,2,50000,0,0.00,2,2,0,2,50000,50000,0,50000,0,0,0,0,0.00,0.00,0.00,0.00
2013-10-05 12:00:00,2,50000,0,0.00,2,2,0,2,50000,50000,0,50000,0,0,0,0,0.00,0.00,0.00,0.00
2013-10-05 12:10:00,2,50000,0,0.00,2,2,0,2,50000,50000,0,50000,0,0,0,0,0.00,0.00,0.00,0.00
2013-10-05 12:20:00,2,50000,0,0.00,2,2,0,2,50000,50000,0,50000,0,0,0,0,0.00,0.00,0.00,0.00
2013-10-05 12:30:00,2,50000,0,0.00,2,2,0,2,50000,50000,0,50000,0,0,0,0,0.00,0.00,0.00,0.00
2013-10-05 12:40:00,2,50000,0,0.00,2,2,0,2,50000,50000,0,50000,0,0,0,0,0.00,0.00,0.00,0.00
2013-10-05 12:50:00,2,50000,0,0.00,2,2,0,2,50000,50000,0,50000,0,0,0,0,0.00,0.00,0.00,0.00
2013-10-05 13:00:00,2,50000,0,0.00,2,2,0,2,50000,50000,0,50000,0,0,0,0,0.00,0.00,0.00,0.00
2013-10-05 13:10:00,2,50000,0,0.00,2,2,0,2,50000,50000,0,50000,0,0,0,0,0.00,0.00,0.00,0.00
2013-10-05 13:20:00,2,50000,0,0.00,2,2,0,2,50000,50000,0,50000,0,0,0,0,0.00,0.00,0.00,0.00
2013-10-05 13:30:00,2,50000,0,0.00,2,2,0,2,50000,50000,0,50000,0,0,0,0,0.00,0.00,0.00,0.00
2013-10-05 13:40:00,2,50000,0,0.00,2,2,0,2,50000,50000,0,50000,0,0,0,0,0.00,0.00,0.00,0.00
2013-10-05 13:50:00,2,50000,0,0.00,2,2,0,2,50000,50000,0,50000,0,0,0,0,0.00,0.00,0.00,0.00
2013-10-05 14:00:00,2,50000,0,0.00,2,2,0,2,50000,50000,0,50000,0,0,0,0,0.00,0.00,0.00,0.00
2013-10-05 14:10:00,2,50000,0,0.00,2,2,0,2,50000,50000,0,50000,0,0,0,0,0.00,0.00,0.00,0.00
2013-10-05 14:20:00,2,50000,0,0.00,2,2,0,2,50000,50000,0,50000,0,0,0,0,0.00,0.00,0.00,0.00
2013-10-05 14:30:00,2,50000,0,0.00,2,2,0,2,50000,50000,0,50000,0,0,0,0,0.00,0.00,0.00,0.00
2013-10-05 14:40:00,2,50000,0,0.00,2,2,0,2,50000,50000,0,50000,0,0,0,0,0.00,0.00,0.00,0.00
2013-10-05 14:50:00,2,50000,0,0.00,2,2,0,2,50000,50000,0,50000,0,0,0,0,0.00,0.00,0.00,0.00
2013-10-05 15:00:00,2,50000,0,0.00,2,2,0,2,50000,50000,0,50000,0,0,0,0,0.00,0.00,0.00,0.00
2013-10-05 15:10:00,2,50000,0,0.00,2,2,0,2,50000,50000,0,50000,0,0,0,0,0.00,0.00,0.00,0.00
2013-10-05 15:20:00,2,50000,0,0.00,2,2,0,2,50000,50000,0,50000,0,0,0,0,0.00,0.00,0.00,0.00
2013-10-05 15:30:00,2,50000,0,0.00,2,2,0,2,50000,50000,0,50000,0,0,0,0,0.00,0.00,0.00,0.00
2013-10-05 15:40:00,2,50000,0,0.00,2,2,0,2,50000,50000,0,50000,0,0,0,0,0.00,0.00,0.00,0.00
2013-10-05 15:50:00,2,50000,0,0.00,2,2,0,2,50000,50000,0,50000,0,0,0,0,0.00,0.00,0.00,0.00
2013-10-05 16:00:00,2,50000,0,0.00,2,2,0,2,50000,50000,0,50000,0,0,0,0,0.00,0.00,0.00,0.00
2013-10-05 16:10:00,2,50000,0,0.00,2,2,0,2,50000,50000,0,50000,0,0,0,0,0.00,0.00,0.00,0.00
2013-10-05 16:20:00,2,50000,0,0.00,2,2,0,2,50000,50000,0,50000,0,0,0,0,0.00,0.00,0.00,0.00
2013-10-05 16:30:00,2,50000,0,0.00,2,2,0,2,50000,50000,0,50000,0,0,0,0,0.00,0.00,0.00,0.00
2013-10-05 16:40:00,2,50000,0,0.00,2,2,0,2,50000,50000,0,50000,0,0,0,0,0.00,0.00,0.00,0.00
2013-10-05 16:50:00,2,50000,0,0.00,2,2,0,2,50000,50000,0,50000,0,0,0,0,0.00,0.00,0.00,0.00
2013-10-05 17:00:00,2,50000,0,0.00,2,2,0,2,50000,50000,0,50000,0,0,0,0,0.00,0.00,0.00,0.00
2013-10-05 17:10:00,2,50000,0,0.00,2,2,0,2,50000,50000,0,50000,0,0,0,0,0.00,0.00,0.00,0.00
2013-10-05 17:20:00,2,50000,0,0.00,2,2,0,2,50000,50000,0,50000,0,0,0,0,0.00,0.00,0.00,0.00
2013-10-05 17:30:00,2,50000,0,0.00,2,2,0,2,50000,50000,0,50000,0,0,0,0,0.00,0.00,0.00,0.00
2013-10-05 17:40:00,2,50000,0,0.00,2,2,0,2,50000,50000,0,50000,0,0,0,0,0.00,0.00,0.00,0.00
2013-10-05 17:50:00,2,50000,0,0.00,2,2,0,2,50000,50000,0,50000,0,0,0,0,0.00,0.00,0.00,0.00
2013-10-05 18:00:00,2,50000,0,0.00,2,2,0,2,50000,50000,0,50000,0,0,0,0,0.00,0.00,0.00,0.00
2013-10-05 18:10:00,2,50000,0,0.00,2,2,0,2,50000,50000,0,50000,0,0,0,0,0.00,0.00,0.00,0.00
2013-10-05 18:20:00,2,50000,0,0.00,2,2,0,2,50000,50000,0,50000,0,0,0,0,0.00,0.00,0.00,0.00
2013-10-05 18:30:00,2,50000,0,0.00,2,2,0,2,50000,50000,0,50000,0,0,0,0,0.00,0.00,0.00,0.00
2013-10-05 18:40:00,2,50000,0,0.00,2,2,0,2,50000,50000,0,50000,0,0,0,0,0.00,0.00,0.00,0.00
2013-10-05 18:50:00,2,50000,0,0.00,2,2,0,2,50000,50000,0,50000,0,0,0,0,0.00,0.00,0.00,0.00
2013-10-05 19:00:00,2,50000,0,0.00,2,2,0,2,50000,50000,0,50000,0,0,0,0,0.00,0.00,0.00,0.00
2013-10-05 19:10:00,2,50000,0,0.00,2,2,0,2,50000,50000,0,50000,0,0,0,0,0.00,0.00,0.00,0.00
2013-10-05 19:20:00,2,50000,0,0.00,2,2,0,2,50000,50000,0,50000,0,0,0,0,0.00,0.00,0.00,0.00
2013-10-05 19:30:00,2,50000,0,0.00,2,2,0,2,50000,50000,0,50000,0,0,0,0,0.00,0.00,0.00,0.00
2013-10-05 19:40:00,2,50000,0,0.00,2,2,0,2,50000,50000,0,50000,0,0,0,0,0.00,0.00,0.00,0.00
2013-10-05 19:50:00,2,50000,0,0.00,2,2,0,2,50000,50000,0,50000,0,0,0,0,0.00,0.00,0.00,0.00
2013-10-05 20:00:00,2,49957,0,0.00,2,2,0,2,49567,50000,130,50000,0,0,0,0,0.00,0.00,0.00,0.00
2013-10-05 20:10:00,2,50000,0,0.00,2,2,0,2,50000,50000,0,50000,0,0,0,0,0.00,0.00,0.00,0.00
2013-10-05 20:20:00,2,49889,0,0.00,2,2,0,2,48887,50000,334,50000,0,0,0,0,0.00,0.00,0.00,0.00
2013-10-05 20:30:00,2,50000,0,0.00,2,2,0,2,50000,50000,0,50000,0,0,0,0,0.00,0.00,0.00,0.00
2013-10-05 20:40:00,2,50000,0,0.00,2,2,0,2,50000,50000,0,50000,0,0,0,0,0.00,0.00,0.00,0.00
2013-10-05 20:50:00,2,50000,0,0.00,2,2,0,2,50000,50000,0,50000,0,0,0,0,0.00,0.00,0.00,0.00
2013-10-05 21:00:00,2,49874,0,0.00,2,2,0,2,49217,50000,262,50000,0,0,0,0,0.00,0.00,0.00,0.00
2013-10-05 21:10:00,2,50000,0,0.00,2,2,0,2,50000,50000,0,50000,0,0,0,0,0.00,0.00,0.00,0.00
2013-10-05 21:20:00,2,50000,0,0.00,2,2,0,2,50000,50000,0,50000,0,0,0,0,0.00,0.00,0.00,0.00
2013-10-05 21:30:00,2,50000,0,0.00,2,2,0,2,50000,50000,0,50000,0,0,0,0,0.00,0.00,0.00,0.00
2013-10-05 21:40:00,2,49923,0,0.00,2,2,0,2,49230,50000,231,50000,0,0,0,0,0.00,0.00,0.00,0.00
2013-10-05 21:50:00,2,50000,0,0.00,2,2,0,2,50000,50000,0,50000,0,0,0,0,0.00,0.00,0.00,0.00
2013-10-05 22:00:00,2,50000,0,0.00,2,2,0,2,50000,50000,0,50000,0,0,0,0,0.00,0.00,0.00,0.00
2013-10-05 22:10:00,2,50000,0,0.00,2,2,0,2,50000,50000,0,50000,0,0,0,0,0.00,0.00,0.00,0.00
2013-10-05 22:20:00,2,50000,0,0.00,2,2,0,2,50000,50000,0,50000,0,0,0,0,0.00,0.00,0.00,0.00
2013-10-05 22:30:00,2,49912,0,0.00,2,2,0,2,49119,50000,264,50000,0,0,0,0,0.00,0.00,0.00,0.00
2013-10-05 22:40:00,2,50000,0,0.00,2,2,0,2,50000,50000,0,50000,0,0,0,0,0.00,0.00,0.00,0.00
2013-10-05 22:50:00,2,50000,0,0.00,2,2,0,2,50000,50000,0,50000,0,0,0,0,0.00,0.00,0.00,0.00
2013-10-05 23:00:00,2,50000,0,0.00,2,2,0,2,50000,50000,0,50000,0,0,0,0,0.00,0.00,0.00,0.00
2013-10-05 23:10:00,2,49928,0,0.00,2,2,0,2,49275,50000,218,50000,0,0,0,0,0.00,0.00,0.00,0.00
2013-10-05 23:20:00,2,50000,0,0.00,2,2,0,2,50000,50000,0,50000,0,0,0,0,0.00,0.00,0.00,0.00
2013-10-05 23:30:00,2,50000,0,0.00,2,2,0,2,50000,50000,0,50000,0,0,0,0,0.00,0.00,0.00,0.00
2013-10-05 23:40:00,2,49364,0,0.00,2,2,0,2,45165,50000,1472,50000,0,0,0,0,0.00,0.00,0.00,0.00
2013-10-05 23:50:00,2,50000,0,0.00,2,2,0,2,50000,50000,0,50000,0,0,0,0,0.00,0.00,0.00,0.00
